TAM4736 SBSP-SBBR

Flight info

Callsign TAM4736
Flight time N/A
Altitude 35000
Route GERTU UZ25 PABIN
Aircraft A320/M-SDE3FGHIRWY/LB1

Departure

Time 2026-05-07 22:32
Airport Congonhas–Deputado Freitas Nobre Airport (SBSP)

Arrival

Time N/A
Airport Presidente Juscelino Kubitschek International Airport (SBBR)
Time Latitude Longitude Altitude Speed Heading
2026-05-07 22:12 -23.63047 -46.65735 2627 ft 0 kts 147°
2026-05-07 22:24 -23.63046 -46.65735 2626 ft 1 kts 147°
2026-05-07 22:24 -23.63028 -46.65752 2626 ft 4 kts 117°
2026-05-07 22:24 -23.63024 -46.65777 2626 ft 3 kts 60°
2026-05-07 22:25 -23.63026 -46.65781 2626 ft 0 kts 57°
2026-05-07 22:27 -23.63025 -46.65779 2626 ft 2 kts 57°
2026-05-07 22:27 -23.63003 -46.65741 2626 ft 8 kts 57°
2026-05-07 22:28 -23.62971 -46.65687 2626 ft 9 kts 57°
2026-05-07 22:28 -23.62932 -46.65623 2626 ft 11 kts 56°
2026-05-07 22:28 -23.62950 -46.65556 2627 ft 11 kts 148°
2026-05-07 22:28 -23.63014 -46.65521 2631 ft 10 kts 169°
2026-05-07 22:29 -23.63079 -46.65503 2634 ft 10 kts 152°
2026-05-07 22:29 -23.63144 -46.65460 2638 ft 10 kts 148°
2026-05-07 22:29 -23.63205 -46.65417 2640 ft 11 kts 147°
2026-05-07 22:29 -23.63272 -46.65371 2642 ft 11 kts 148°
2026-05-07 22:30 -23.63335 -46.65328 2643 ft 10 kts 148°
2026-05-07 22:30 -23.63399 -46.65284 2643 ft 11 kts 147°
2026-05-07 22:30 -23.63472 -46.65233 2642 ft 13 kts 147°
2026-05-07 22:30 -23.63503 -46.65170 2640 ft 12 kts 77°
2026-05-07 22:31 -23.63422 -46.65128 2639 ft 19 kts 341°
2026-05-07 22:31 -23.63123 -46.65331 2640 ft 91 kts 327°
2026-05-07 22:31 -23.62376 -46.65851 2614 ft 160 kts 327°
2026-05-07 22:31 -23.61406 -46.66542 3231 ft 169 kts 328°
2026-05-07 22:32 -23.60413 -46.67270 3979 ft 175 kts 328°
2026-05-07 22:32 -23.59422 -46.68093 4699 ft 183 kts 320°
2026-05-07 22:32 -23.58372 -46.68986 4918 ft 201 kts 329°
2026-05-07 22:32 -23.57117 -46.69838 5103 ft 224 kts 329°
2026-05-07 22:33 -23.55720 -46.70824 5288 ft 252 kts 328°
2026-05-07 22:33 -23.54201 -46.71917 5755 ft 267 kts 327°
2026-05-07 22:33 -23.52643 -46.73053 6516 ft 271 kts 327°
2026-05-07 22:33 -23.51092 -46.74194 7272 ft 273 kts 327°
2026-05-07 22:34 -23.49493 -46.75377 8052 ft 276 kts 327°
2026-05-07 22:34 -23.47902 -46.76559 8827 ft 278 kts 327°
2026-05-07 22:34 -23.46313 -46.77740 9574 ft 281 kts 327°
2026-05-07 22:34 -23.44686 -46.78947 10249 ft 287 kts 327°
2026-05-07 22:35 -23.42968 -46.80218 10442 ft 310 kts 327°
2026-05-07 22:35 -23.41127 -46.81579 10720 ft 326 kts 327°
2026-05-07 22:35 -23.39551 -46.82746 11151 ft 332 kts 327°
2026-05-07 22:35 -23.37625 -46.84177 11701 ft 337 kts 327°
2026-05-07 22:36 -23.35690 -46.85612 12259 ft 342 kts 327°
2026-05-07 22:36 -23.33708 -46.87083 12803 ft 347 kts 327°
2026-05-07 22:36 -23.31691 -46.88577 13330 ft 352 kts 327°
2026-05-07 22:36 -23.29650 -46.90088 13845 ft 357 kts 327°
2026-05-07 22:37 -23.27586 -46.91615 14319 ft 361 kts 327°
2026-05-07 22:37 -23.25501 -46.93159 14813 ft 364 kts 327°
2026-05-07 22:37 -23.23401 -46.94715 15309 ft 367 kts 327°
2026-05-07 22:37 -23.21279 -46.96283 15810 ft 370 kts 327°
2026-05-07 22:38 -23.19140 -46.97858 16306 ft 373 kts 327°
2026-05-07 22:38 -23.16978 -46.99451 16796 ft 377 kts 327°
2026-05-07 22:38 -23.14799 -47.01057 17295 ft 380 kts 326°
2026-05-07 22:38 -23.12623 -47.02664 17786 ft 383 kts 326°
2026-05-07 22:39 -23.10403 -47.04303 18286 ft 386 kts 326°
2026-05-07 22:39 -23.08175 -47.05948 18716 ft 390 kts 326°
2026-05-07 22:39 -23.05918 -47.07616 19161 ft 393 kts 326°
2026-05-07 22:39 -23.03652 -47.09290 19614 ft 395 kts 325°
2026-05-07 22:40 -23.01369 -47.10972 20082 ft 398 kts 325°
2026-05-07 22:40 -22.99067 -47.12664 20539 ft 401 kts 325°
2026-05-07 22:40 -22.96751 -47.14371 20989 ft 404 kts 324°
2026-05-07 22:40 -22.94417 -47.16088 21446 ft 407 kts 324°
2026-05-07 22:41 -22.92062 -47.17819 21904 ft 410 kts 324°
2026-05-07 22:41 -22.89694 -47.19559 22341 ft 413 kts 324°
2026-05-07 22:41 -22.87326 -47.21296 22782 ft 416 kts 324°
2026-05-07 22:41 -22.84912 -47.23064 23217 ft 419 kts 323°
2026-05-07 22:42 -22.82491 -47.24841 23631 ft 422 kts 323°
2026-05-07 22:42 -22.80049 -47.26635 23979 ft 425 kts 323°
2026-05-07 22:42 -22.77595 -47.28436 24336 ft 427 kts 323°
2026-05-07 22:42 -22.75124 -47.30247 24679 ft 430 kts 323°
2026-05-07 22:43 -22.72633 -47.32073 25035 ft 432 kts 323°
2026-05-07 22:43 -22.70134 -47.33900 25374 ft 435 kts 322°
2026-05-07 22:43 -22.67619 -47.35735 25726 ft 437 kts 322°
2026-05-07 22:43 -22.65150 -47.37606 26071 ft 438 kts 320°
2026-05-07 22:44 -22.62677 -47.39617 26418 ft 440 kts 318°
2026-05-07 22:44 -22.60299 -47.41640 26739 ft 442 kts 317°
2026-05-07 22:44 -22.57891 -47.43726 27072 ft 444 kts 317°
2026-05-07 22:44 -22.55474 -47.45817 27406 ft 446 kts 317°
2026-05-07 22:45 -22.53029 -47.47907 27739 ft 449 kts 317°
2026-05-07 22:45 -22.50564 -47.49985 28069 ft 451 kts 317°
2026-05-07 22:45 -22.48073 -47.52064 28397 ft 453 kts 317°
2026-05-07 22:45 -22.45525 -47.54100 28721 ft 458 kts 323°
2026-05-07 22:46 -22.42687 -47.55725 29034 ft 467 kts 333°
2026-05-07 22:46 -22.39549 -47.56800 29334 ft 476 kts 344°
2026-05-07 22:46 -22.36260 -47.57385 29633 ft 481 kts 347°
2026-05-07 22:46 -22.32938 -47.57931 29934 ft 484 kts 347°
2026-05-07 22:47 -22.29648 -47.58479 30205 ft 486 kts 347°
2026-05-07 22:47 -22.26267 -47.59050 30562 ft 485 kts 347°
2026-05-07 22:47 -22.22975 -47.59607 30914 ft 486 kts 347°
2026-05-07 22:47 -22.19634 -47.60171 31263 ft 486 kts 347°
2026-05-07 22:48 -22.16289 -47.60734 31619 ft 486 kts 347°
2026-05-07 22:48 -22.12949 -47.61292 31973 ft 486 kts 347°
2026-05-07 22:48 -22.09603 -47.61851 32312 ft 487 kts 347°
2026-05-07 22:48 -22.06256 -47.62413 32661 ft 487 kts 347°
2026-05-07 22:49 -22.02908 -47.62976 32996 ft 487 kts 347°
2026-05-07 22:49 -21.99558 -47.63539 33343 ft 487 kts 347°
2026-05-07 22:49 -21.96206 -47.64102 33675 ft 487 kts 347°
2026-05-07 22:49 -21.92856 -47.64661 33944 ft 488 kts 346°
2026-05-07 22:50 -21.89493 -47.65217 34004 ft 489 kts 347°
2026-05-07 22:50 -21.82760 -47.66334 34002 ft 489 kts 346°
2026-05-07 22:51 -21.76034 -47.67458 33991 ft 489 kts 347°
2026-05-07 22:51 -21.69339 -47.68572 33995 ft 490 kts 347°
2026-05-07 22:52 -21.62598 -47.69688 33997 ft 490 kts 347°
2026-05-07 22:52 -21.55855 -47.70808 33992 ft 490 kts 347°
2026-05-07 22:53 -21.49105 -47.71912 33993 ft 490 kts 347°
2026-05-07 22:53 -21.42358 -47.73009 33994 ft 490 kts 347°
2026-05-07 22:54 -21.35614 -47.74116 34000 ft 491 kts 347°
2026-05-07 22:54 -21.28859 -47.75224 33999 ft 491 kts 347°
2026-05-07 22:55 -21.22148 -47.76320 34000 ft 491 kts 347°
2026-05-07 22:55 -21.15379 -47.77418 34000 ft 491 kts 347°
2026-05-07 22:56 -21.08600 -47.78447 34003 ft 492 kts 348°
2026-05-07 22:56 -21.01785 -47.79345 34001 ft 493 kts 349°
2026-05-07 22:57 -20.95016 -47.80218 34003 ft 493 kts 349°
2026-05-07 22:57 -20.88212 -47.81132 34008 ft 493 kts 348°
2026-05-07 22:58 -20.81400 -47.82073 34007 ft 493 kts 348°
2026-05-07 22:58 -20.74585 -47.83010 34008 ft 493 kts 348°
2026-05-07 22:59 -20.67769 -47.83930 34009 ft 494 kts 349°
2026-05-07 22:59 -20.60996 -47.84842 34009 ft 494 kts 349°
2026-05-07 23:00 -20.54174 -47.85767 34009 ft 494 kts 349°
2026-05-07 23:00 -20.47342 -47.86688 34011 ft 495 kts 349°
2026-05-07 23:01 -20.40507 -47.87611 34012 ft 495 kts 349°
2026-05-07 23:01 -20.33686 -47.88534 34006 ft 494 kts 349°
2026-05-07 23:02 -20.26863 -47.89456 34005 ft 494 kts 349°
2026-05-07 23:02 -20.21193 -47.90226 34009 ft 494 kts 349°
2026-05-07 23:03 -20.14367 -47.91159 34011 ft 494 kts 349°
2026-05-07 23:03 -20.06444 -47.92234 34024 ft 494 kts 349°
2026-05-07 23:04 -20.00732 -47.93004 34040 ft 494 kts 349°
2026-05-07 23:04 -19.93960 -47.93914 34053 ft 493 kts 349°
2026-05-07 23:05 -19.87151 -47.94834 34064 ft 493 kts 349°
2026-05-07 23:05 -19.80348 -47.95751 34065 ft 492 kts 349°
2026-05-07 23:06 -19.73544 -47.96671 34067 ft 492 kts 349°
2026-05-07 23:06 -19.66745 -47.97587 34066 ft 492 kts 349°
2026-05-07 23:07 -19.60002 -47.98492 34062 ft 491 kts 349°
2026-05-07 23:07 -19.53216 -47.99400 34058 ft 491 kts 349°
2026-05-07 23:08 -19.46439 -48.00315 34058 ft 491 kts 349°
2026-05-07 23:08 -19.39668 -48.01192 34052 ft 491 kts 351°
2026-05-07 23:09 -19.32833 -48.01658 34052 ft 492 kts 355°
2026-05-07 23:09 -19.25988 -48.01864 34050 ft 492 kts 356°
2026-05-07 23:10 -19.19317 -48.02113 34050 ft 491 kts 354°
2026-05-07 23:10 -19.12501 -48.02495 34065 ft 491 kts 354°
2026-05-07 23:11 -19.05723 -48.02888 34079 ft 490 kts 354°
2026-05-07 23:11 -18.98903 -48.03250 34090 ft 490 kts 354°
2026-05-07 23:12 -18.92083 -48.03581 34096 ft 490 kts 354°
2026-05-07 23:12 -18.85274 -48.03916 34097 ft 490 kts 354°
2026-05-07 23:13 -18.78465 -48.04264 34088 ft 489 kts 354°
2026-05-07 23:13 -18.71706 -48.04612 34076 ft 489 kts 354°
2026-05-07 23:14 -18.64914 -48.04963 34055 ft 489 kts 354°
2026-05-07 23:14 -18.58120 -48.05306 34038 ft 488 kts 355°
2026-05-07 23:15 -18.51328 -48.05646 34033 ft 488 kts 355°
2026-05-07 23:15 -18.44542 -48.05994 34027 ft 488 kts 355°
2026-05-07 23:16 -18.37764 -48.06342 34030 ft 487 kts 354°
2026-05-07 23:16 -18.30992 -48.06682 34028 ft 487 kts 355°
2026-05-07 23:17 -18.24265 -48.07022 34026 ft 487 kts 354°
2026-05-07 23:17 -18.17485 -48.07370 34029 ft 486 kts 355°
2026-05-07 23:18 -18.10719 -48.07713 34029 ft 486 kts 355°
2026-05-07 23:18 -18.03967 -48.08050 34026 ft 486 kts 355°
2026-05-07 23:19 -17.97214 -48.08392 34025 ft 486 kts 355°
2026-05-07 23:19 -17.90501 -48.08736 34023 ft 485 kts 355°
2026-05-07 23:20 -17.83758 -48.09078 34028 ft 485 kts 355°
2026-05-07 23:20 -17.77023 -48.09414 34035 ft 485 kts 355°
2026-05-07 23:21 -17.70301 -48.09751 33975 ft 477 kts 355°
2026-05-07 23:21 -17.67016 -48.09914 33664 ft 469 kts 355°
2026-05-07 23:21 -17.63772 -48.10074 33259 ft 465 kts 355°
2026-05-07 23:21 -17.60556 -48.10231 32834 ft 461 kts 355°
2026-05-07 23:22 -17.57360 -48.10391 32409 ft 458 kts 355°
2026-05-07 23:22 -17.54177 -48.10553 31994 ft 455 kts 355°
2026-05-07 23:22 -17.51022 -48.10712 31594 ft 452 kts 355°
2026-05-07 23:22 -17.47932 -48.10869 31195 ft 449 kts 355°
2026-05-07 23:23 -17.44824 -48.11026 30799 ft 446 kts 355°
2026-05-07 23:23 -17.41724 -48.11183 30417 ft 444 kts 355°
2026-05-07 23:23 -17.38644 -48.11336 30055 ft 441 kts 355°
2026-05-07 23:23 -17.35583 -48.11490 29635 ft 438 kts 355°
2026-05-07 23:24 -17.32544 -48.11647 29246 ft 435 kts 356°
2026-05-07 23:24 -17.29530 -48.11797 28877 ft 432 kts 356°
2026-05-07 23:24 -17.26538 -48.11945 28520 ft 429 kts 356°
2026-05-07 23:24 -17.23561 -48.12094 28172 ft 426 kts 356°
2026-05-07 23:25 -17.20608 -48.12243 27826 ft 424 kts 356°
2026-05-07 23:25 -17.17676 -48.12390 27498 ft 421 kts 356°
2026-05-07 23:25 -17.14761 -48.12535 27142 ft 418 kts 356°
2026-05-07 23:25 -17.11861 -48.12680 26798 ft 415 kts 356°
2026-05-07 23:26 -17.08977 -48.12826 26450 ft 413 kts 356°
2026-05-07 23:26 -17.06118 -48.12970 26114 ft 410 kts 357°
2026-05-07 23:26 -17.03279 -48.13114 25765 ft 407 kts 357°
2026-05-07 23:26 -17.00454 -48.13255 25420 ft 404 kts 357°
2026-05-07 23:27 -16.94896 -48.13534 24736 ft 399 kts 357°
2026-05-07 23:27 -16.92129 -48.13671 24395 ft 396 kts 358°
2026-05-07 23:27 -16.89388 -48.13807 24045 ft 394 kts 358°
2026-05-07 23:28 -16.86659 -48.13942 23703 ft 391 kts 358°
2026-05-07 23:28 -16.83942 -48.14076 23317 ft 388 kts 358°
2026-05-07 23:28 -16.81251 -48.14210 22935 ft 385 kts 358°
2026-05-07 23:28 -16.78577 -48.14343 22564 ft 382 kts 358°
2026-05-07 23:29 -16.75935 -48.14476 22202 ft 379 kts 358°
2026-05-07 23:29 -16.73317 -48.14607 21837 ft 375 kts 358°
2026-05-07 23:29 -16.70716 -48.14737 21479 ft 372 kts 358°
2026-05-07 23:29 -16.68140 -48.14865 21127 ft 369 kts 358°
2026-05-07 23:30 -16.65594 -48.14994 20681 ft 364 kts 358°
2026-05-07 23:30 -16.63077 -48.15120 20164 ft 360 kts 358°
2026-05-07 23:30 -16.60616 -48.15241 19669 ft 356 kts 358°
2026-05-07 23:30 -16.58157 -48.15361 19207 ft 351 kts 358°
2026-05-07 23:31 -16.55717 -48.15480 18710 ft 351 kts 358°
2026-05-07 23:31 -16.53260 -48.15601 18183 ft 355 kts 358°
2026-05-07 23:31 -16.50787 -48.15726 17605 ft 357 kts 358°
2026-05-07 23:31 -16.48300 -48.15851 17061 ft 358 kts 358°
2026-05-07 23:32 -16.45812 -48.15976 16574 ft 358 kts 358°
2026-05-07 23:32 -16.43327 -48.16100 16085 ft 357 kts 358°
2026-05-07 23:32 -16.40849 -48.16224 15606 ft 356 kts 358°
2026-05-07 23:32 -16.38376 -48.16345 15137 ft 355 kts 358°
2026-05-07 23:33 -16.35917 -48.16466 14676 ft 353 kts 358°
2026-05-07 23:33 -16.33468 -48.16588 14224 ft 352 kts 358°
2026-05-07 23:33 -16.31026 -48.16710 13763 ft 350 kts 357°
2026-05-07 23:33 -16.28601 -48.16831 13255 ft 348 kts 357°
2026-05-07 23:34 -16.26186 -48.16953 12757 ft 345 kts 357°
2026-05-07 23:34 -16.23843 -48.17070 12305 ft 329 kts 357°
2026-05-07 23:34 -16.21601 -48.17180 11878 ft 316 kts 357°
2026-05-07 23:34 -16.19443 -48.17284 11423 ft 305 kts 357°
2026-05-07 23:35 -16.17380 -48.17385 11002 ft 296 kts 357°
2026-05-07 23:35 -16.15332 -48.17487 10650 ft 294 kts 357°
2026-05-07 23:35 -16.13291 -48.17589 10310 ft 293 kts 357°
2026-05-07 23:35 -16.11253 -48.17692 9969 ft 293 kts 357°
2026-05-07 23:36 -16.09219 -48.17793 9595 ft 292 kts 358°
2026-05-07 23:36 -16.07194 -48.17892 9219 ft 291 kts 358°
2026-05-07 23:36 -16.05186 -48.17993 8855 ft 283 kts 358°
2026-05-07 23:36 -16.03270 -48.18090 8570 ft 269 kts 358°
2026-05-07 23:37 -16.01438 -48.18179 8277 ft 257 kts 358°
2026-05-07 23:37 -15.99686 -48.18266 8007 ft 248 kts 358°
2026-05-07 23:37 -15.97975 -48.18358 7771 ft 245 kts 357°
2026-05-07 23:37 -15.96306 -48.18462 7541 ft 241 kts 360°
2026-05-07 23:38 -15.94678 -48.18235 7376 ft 233 kts 18°
2026-05-07 23:38 -15.93254 -48.17499 7229 ft 226 kts 36°
2026-05-07 23:38 -15.92151 -48.16387 7110 ft 218 kts 52°
2026-05-07 23:38 -15.91364 -48.15073 6995 ft 212 kts 58°
2026-05-07 23:39 -15.90616 -48.13766 6883 ft 210 kts 58°
2026-05-07 23:39 -15.89871 -48.12472 6807 ft 205 kts 57°
2026-05-07 23:39 -15.89256 -48.11179 6614 ft 198 kts 72°
2026-05-07 23:39 -15.89070 -48.09776 6390 ft 194 kts 84°
2026-05-07 23:40 -15.88984 -48.08407 6149 ft 191 kts 84°
2026-05-07 23:40 -15.88898 -48.07034 5916 ft 190 kts 84°
2026-05-07 23:40 -15.88811 -48.05673 5674 ft 188 kts 84°
2026-05-07 23:40 -15.88726 -48.04324 5444 ft 186 kts 83°
2026-05-07 23:41 -15.88644 -48.03023 5203 ft 173 kts 83°
2026-05-07 23:41 -15.88568 -48.01826 5020 ft 161 kts 83°
2026-05-07 23:41 -15.88495 -48.00688 4834 ft 156 kts 83°
2026-05-07 23:41 -15.88424 -47.99568 4598 ft 155 kts 84°
2026-05-07 23:42 -15.88355 -47.98469 4428 ft 155 kts 84°
2026-05-07 23:42 -15.88282 -47.97354 4235 ft 154 kts 86°